CW3956 Weather Reports


time (UTC)temp
C
wind
direction
speed
KPH
gust
KPH
rain 1hr
cm
rain 24hr
cm
rain mn
cm
humidity
%
barometer
mb
20260509054003 21 219 1.6 4.8 0.00 0.28 0.00 80 1011.1
20260509053503 21 219 0.0 6.4 0.00 0.28 0.00 80 1011.3
20260509053004 21 219 1.6 9.7 0.00 0.28 0.00 80 1011.2
20260509052504 21 221 4.8 9.7 0.00 0.28 0.00 80 1011.1
20260509052004 21 191 1.6 3.2 0.00 0.28 0.00 80 1011.4
20260509051514 21 327 1.6 3.2 0.00 0.28 0.00 80 1012.0
20260509051005 21 326 1.6 3.2 0.00 0.28 0.00 80 1012.2
20260509050507 21 326 1.6 8.0 0.00 0.28 0.00 80 1011.7
20260509050017 21 222 0.0 8.0 0.00 0.28 0.00 79 1011.1
20260509045505 21 229 3.2 8.0 0.00 0.28 0.28 79 1010.6
20260509045011 21 233 3.2 6.4 0.00 0.28 0.28 78 1010.5
20260509044518 21 203 0.0 4.8 0.00 0.28 0.28 78 1010.4
20260509044007 22 212 0.0 11.3 0.00 0.28 0.28 78 1010.4
20260509043512 22 230 1.6 11.3 0.00 0.28 0.28 78 1010.2
20260509043004 22 206 4.8 6.4 0.00 0.28 0.28 78 1009.9
20260509042505 22 210 1.6 4.8 0.00 0.28 0.28 77 1010.4
20260509042003 22 242 0.0 4.8 0.00 0.28 0.28 77 1010.4
20260509041509 22 151 1.6 4.8 0.00 0.28 0.28 77 1010.5
20260509041005 22 272 0.0 3.2 0.00 0.28 0.28 77 1010.4
20260509040504 22 230 1.6 3.2 0.00 0.28 0.28 77 1010.2
20260509040012 22 119 1.6 3.2 0.00 0.28 0.28 77 1010.4
20260509035508 22 119 0.0 3.2 0.00 0.28 0.28 76 1010.7
20260509035004 22 102 0.0 3.2 0.00 0.28 0.28 77 1010.7
20260509034536 22 44 0.0 4.8 0.00 0.28 0.28 77 1011.1
20260509034007 22 44 1.6 4.8 0.00 0.28 0.28 77 1011.4
20260509033509 22 244 0.0 3.2 0.00 0.28 0.28 77 1011.3
20260509033024 22 244 0.0 3.2 0.00 0.28 0.28 77 1011.2
20260509032509 22 244 0.0 3.2 0.00 0.28 0.28 77 1010.7
20260509032015 22 151 0.0 3.2 0.00 0.28 0.28 77 1010.6
20260509031506 22 71 0.0 4.8 0.00 0.28 0.28 77 1010.7
20260509031003 22 71 0.0 4.8 0.00 0.28 0.28 77 1010.7
20260509030506 22 167 0.0 4.8 0.00 0.28 0.28 77 1010.8
20260509030011 22 167 0.0 4.8 0.00 0.28 0.28 77 1010.8
20260509025503 22 167 0.0 4.8 0.00 0.28 0.28 77 1010.7
20260509025005 22 167 0.0 3.2 0.00 0.28 0.28 77 1010.4
20260509024514 22 157 0.0 3.2 0.00 0.28 0.28 77 1010.3
20260509024006 22 219 0.0 6.4 0.00 0.28 0.28 77 1010.1
20260509023507 22 219 0.0 6.4 0.00 0.28 0.28 77 1009.9
20260509023019 22 188 1.6 6.4 0.00 0.28 0.28 77 1009.8
20260509022506 22 206 1.6 9.7 0.00 0.28 0.28 76 1009.7
20260509022009 22 207 1.6 9.7 0.00 0.28 0.28 76 1009.5
20260509021526 22 157 1.6 6.4 0.00 0.28 0.28 76 1009.4
20260509021010 22 167 1.6 8.0 0.00 0.28 0.28 76 1009.3
20260509020516 22 161 3.2 8.0 0.00 0.28 0.28 76 1009.3
20260509020008 22 216 3.2 8.0 0.00 0.28 0.28 76 1009.3
20260509015504 22 190 1.6 8.0 0.00 0.28 0.28 75 1009.4
20260509015006 22 202 3.2 8.0 0.00 0.28 0.28 75 1009.6
20260509014515 22 166 1.6 8.0 0.00 0.28 0.28 75 1009.4
20260509014005 22 206 4.8 8.0 0.00 0.28 0.28 75 1009.4
20260509013505 22 239 3.2 8.0 0.00 0.28 0.28 74 1009.4
20260509013019 22 251 1.6 11.3 0.00 0.28 0.28 74 1009.4
20260509012506 22 225 4.8 11.3 0.00 0.28 0.28 74 1009.4
20260509012010 22 249 1.6 8.0 0.00 0.28 0.28 74 1009.6
20260509011523 22 211 1.6 8.0 0.00 0.28 0.28 73 1009.6
20260509011009 22 195 3.2 6.4 0.00 0.28 0.28 73 1009.6
20260509010509 22 199 1.6 6.4 0.00 0.28 0.28 73 1009.4
20260509010033 22 242 1.6 6.4 0.00 0.28 0.28 73 1009.3
20260509005507 23 229 1.6 11.3 0.00 0.28 0.28 72 1009.4
20260509005011 23 185 3.2 11.3 0.00 0.28 0.28 72 1009.2
20260509004512 23 220 1.6 11.3 0.00 0.28 0.28 71 1009.1
20260509004008 23 226 1.6 8.0 0.00 0.28 0.28 71 1008.9
20260509003504 23 230 1.6 6.4 0.00 0.28 0.28 71 1008.7
20260509003020 23 180 3.2 6.4 0.00 0.28 0.28 71 1008.7
20260509002508 23 157 1.6 8.0 0.00 0.28 0.28 71 1008.8
20260509002006 23 172 3.2 8.0 0.00 0.28 0.28 70 1008.9
20260509001526 23 166 3.2 11.3 0.00 0.28 0.28 70 1008.8
20260509001008 23 205 3.2 11.3 0.00 0.28 0.28 70 1008.8
20260509000506 23 153 3.2 8.0 0.00 0.28 0.28 70 1008.8
20260509000024 23 170 1.6 4.8 0.00 0.28 0.28 70 1008.9
20260508235506 23 131 1.6 11.3 0.00 0.28 0.28 69 1009.0
20260508235011 23 169 3.2 11.3 0.00 0.28 0.28 69 1009.1
20260508234528 23 167 1.6 12.9 0.00 0.28 0.28 69 1009.2
20260508234011 23 204 3.2 12.9 0.00 0.28 0.28 68 1009.2
20260508233508 23 220 3.2 12.9 0.00 0.28 0.28 68 1009.2
20260508233016 23 240 4.8 12.9 0.00 0.28 0.28 68 1009.2
20260508232505 23 221 6.4 17.7 0.00 0.28 0.28 68 1009.3
20260508232010 23 190 4.8 17.7 0.00 0.28 0.28 67 1009.4
20260508231520 23 182 3.2 11.3 0.00 0.28 0.28 67 1009.3
20260508231007 23 254 1.6 11.3 0.00 0.28 0.28 67 1009.4
20260508230510 24 184 3.2 11.3 0.00 0.28 0.28 67 1009.5
20260508230023 24 192 1.6 11.3 0.00 0.28 0.28 67 1009.6
20260508225511 24 217 4.8 8.0 0.00 0.28 0.28 67 1009.5
20260508225011 24 234 3.2 6.4 0.00 0.28 0.28 67 1009.5
20260508224535 23 112 1.6 11.3 0.00 0.28 0.28 67 1009.6
20260508224009 23 214 4.8 17.7 0.00 0.28 0.28 68 1009.6
20260508223514 23 234 9.7 17.7 0.00 0.28 0.28 67 1009.5
20260508223041 24 220 9.7 19.3 0.00 0.28 0.28 66 1009.5
20260508222513 24 223 11.3 19.3 0.00 0.28 0.28 65 1009.5
20260508222006 24 174 1.6 16.1 0.00 0.28 0.28 66 1009.4
20260508221516 24 178 3.2 19.3 0.00 0.28 0.28 65 1009.3
20260508221008 25 232 9.7 19.3 0.00 0.28 0.28 65 1009.3
20260508220508 25 225 3.2 9.7 0.00 0.28 0.28 65 1009.3
20260508220027 25 180 1.6 14.5 0.00 0.28 0.28 65 1009.2
20260508215507 25 217 3.2 14.5 0.00 0.28 0.28 66 1009.2
20260508215011 25 223 6.4 14.5 0.00 0.28 0.28 65 1009.2
20260508214547 25 160 3.2 14.5 0.00 0.28 0.28 66 1009.2
20260508214006 25 229 6.4 14.5 0.00 0.28 0.28 65 1009.3
20260508213503 25 189 3.2 12.9 0.00 0.28 0.28 65 1009.3
20260508213012 25 236 4.8 12.9 0.00 0.28 0.28 64 1009.2
20260508212504 25 199 4.8 11.3 0.00 0.28 0.28 64 1009.3
20260508212007 25 213 3.2 12.9 0.00 0.28 0.28 64 1009.4
20260508211505 25 161 3.2 12.9 0.00 0.28 0.28 64 1009.4
20260508211004 24 152 3.2 8.0 0.00 0.28 0.28 64 1009.5
20260508210503 24 257 3.2 9.7 0.00 0.28 0.28 65 1009.9
20260508210009 23 208 3.2 12.9 0.00 0.28 0.28 66 1010.1
20260508205503 23 210 4.8 12.9 0.00 0.28 0.28 66 1010.2
20260508205003 23 155 3.2 11.3 0.00 0.28 0.28 66 1010.4
20260508204507 23 161 1.6 17.7 0.00 0.28 0.28 65 1010.6
20260508204005 23 252 8.0 17.7 0.00 0.28 0.28 65 1010.9
20260508203503 23 215 3.2 16.1 0.00 0.28 0.28 64 1011.0
20260508203014 24 238 4.8 12.9 0.00 0.28 0.28 64 1011.1
20260508202504 24 195 4.8 12.9 0.00 0.28 0.28 63 1011.0
20260508202004 24 157 3.2 8.0 0.00 0.28 0.28 63 1011.0
20260508201510 24 194 1.6 9.7 0.00 0.28 0.28 64 1011.1
20260508201005 24 225 4.8 9.7 0.00 0.28 0.28 63 1011.0
20260508200504 25 238 4.8 8.0 0.00 0.28 0.28 62 1011.1
20260508200008 25 222 4.8 12.9 0.00 0.28 0.28 62 1011.2
20260508195502 25 169 1.6 12.9 0.00 0.28 0.28 63 1011.2
20260508195003 25 173 1.6 9.7 0.00 0.28 0.28 63 1011.2
20260508194506 25 244 3.2 16.1 0.00 0.28 0.28 63 1011.2
20260508194003 25 236 9.7 16.1 0.00 0.28 0.28 61 1011.3
20260508193504 25 246 4.8 12.9 0.00 0.28 0.28 61 1011.2
20260508193004 25 236 6.4 12.9 0.00 0.28 0.28 60 1011.3
20260508192507 25 181 4.8 17.7 0.00 0.28 0.28 60 1011.3
20260508192004 26 170 3.2 17.7 0.00 0.28 0.28 59 1011.3
20260508191508 26 240 1.6 16.1 0.00 0.28 0.28 60 1011.4
20260508191004 26 209 3.2 16.1 0.00 0.28 0.28 59 1011.5
20260508190504 26 211 6.4 12.9 0.00 0.28 0.28 59 1011.5
20260508190021 26 239 4.8 12.9 0.00 0.28 0.28 57 1011.5
20260508185503 26 232 6.4 12.9 0.00 0.28 0.28 57 1011.5
20260508185005 26 169 1.6 11.3 0.00 0.28 0.28 57 1011.5
20260508184521 25 223 3.2 12.9 0.00 0.28 0.28 57 1011.6
20260508184007 26 162 3.2 12.9 0.00 0.28 0.28 57 1011.6
20260508183503 26 214 4.8 12.9 0.00 0.28 0.28 57 1011.6
20260508183023 25 240 1.6 9.7 0.00 0.28 0.28 57 1011.7
20260508182504 26 257 4.8 11.3 0.00 0.28 0.28 57 1011.8
20260508182004 26 271 0.0 11.3 0.00 0.28 0.28 56 1011.9
20260508181507 26 217 3.2 6.4 0.00 0.28 0.28 56 1012.0
20260508181005 25 173 0.0 8.0 0.00 0.28 0.28 57 1012.1
20260508180504 25 188 3.2 8.0 0.00 0.28 0.28 58 1012.2
20260508180013 25 133 0.0 12.9 0.00 0.28 0.28 59 1012.1
20260508175504 25 226 8.0 12.9 0.00 0.28 0.28 56 1012.2
20260508175006 25 140 3.2 12.9 0.00 0.28 0.28 58 1012.3
20260508174512 25 164 3.2 12.9 0.00 0.28 0.28 58 1012.3
20260508174005 25 166 1.6 11.3 0.00 0.28 0.28 59 1012.3
20260508173503 24 199 1.6 11.3 0.00 0.28 0.28 60 1012.5
20260508173013 24 178 1.6 6.4 0.00 0.28 0.28 61 1012.5
20260508172504 23 214 0.0 14.5 0.00 0.28 0.28 63 1012.6
20260508172005 22 157 1.6 14.5 0.00 0.28 0.28 63 1012.9
20260508171512 22 209 4.8 14.5 0.00 0.28 0.28 64 1013.1
20260508171006 22 205 3.2 16.1 0.00 0.28 0.28 64 1013.1
20260508170505 22 216 8.0 16.1 0.00 0.28 0.28 64 1013.4
20260508170016 22 234 4.8 17.7 0.00 0.28 0.28 65 1013.6
20260508165505 21 154 8.0 17.7 0.00 0.28 0.28 66 1013.7
20260508165005 21 234 3.2 14.5 0.00 0.28 0.28 66 1013.9
20260508164521 21 225 6.4 14.5 0.00 0.28 0.28 66 1013.9
20260508164007 21 196 3.2 9.7 0.00 0.28 0.28 67 1014.0
20260508163506 21 213 3.2 9.7 0.00 0.28 0.28 67 1014.2
20260508163016 21 236 1.6 12.9 0.00 0.28 0.28 67 1014.3
20260508162506 20 190 4.8 12.9 0.00 0.28 0.28 67 1014.3
20260508162007 20 136 1.6 14.5 0.00 0.28 0.28 67 1014.3
20260508161514 20 198 4.8 14.5 0.00 0.28 0.28 67 1014.4
20260508161007 20 210 3.2 9.7 0.00 0.28 0.28 67 1014.4
20260508160509 20 207 1.6 4.8 0.00 0.28 0.28 68 1014.5
20260508160020 20 173 0.0 8.0 0.00 0.28 0.28 68 1014.5
20260508155503 20 167 3.2 8.0 0.00 0.28 0.28 68 1014.5
20260508155005 20 232 1.6 9.7 0.00 0.28 0.28 67 1014.5
20260508154517 20 279 4.8 9.7 0.00 0.28 0.28 68 1014.9
20260508154008 20 267 1.6 9.7 0.00 0.28 0.28 68 1014.9
20260508153505 19 213 4.8 9.7 0.00 0.28 0.28 69 1014.8
20260508153028 19 184 1.6 6.4 0.00 0.28 0.28 69 1014.8
20260508152507 19 219 1.6 4.8 0.00 0.28 0.28 71 1014.7
20260508152010 19 225 3.2 4.8 0.00 0.28 0.28 71 1014.8
20260508151516 19 126 0.0 6.4 0.00 0.28 0.28 72 1014.9
20260508151006 19 211 3.2 6.4 0.00 0.28 0.28 72 1014.9
20260508150506 18 211 1.6 4.8 0.00 0.28 0.28 72 1014.9
20260508150020 18 240 0.0 4.8 0.00 0.28 0.28 73 1015.0
20260508145506 18 199 3.2 6.4 0.00 0.28 0.28 74 1014.9
20260508145006 18 213 3.2 6.4 0.00 0.28 0.28 75 1014.9
20260508144527 18 222 1.6 4.8 0.00 0.28 0.28 77 1014.7
20260508144007 18 190 0.0 6.4 0.00 0.28 0.28 77 1014.7
20260508143506 18 217 0.0 8.0 0.00 0.28 0.28 77 1014.9
20260508143020 17 182 1.6 11.3 0.00 0.28 0.28 77 1015.0
20260508142505 17 277 4.8 11.3 0.00 0.28 0.28 79 1014.9
20260508142015 17 180 1.6 6.4 0.00 0.28 0.28 80 1015.1
20260508141524 17 187 3.2 6.4 0.00 0.28 0.28 81 1015.0
20260508141008 17 173 0.0 3.2 0.00 0.28 0.28 81 1015.1
20260508140507 16 187 0.0 9.7 0.00 0.28 0.28 82 1015.1
20260508140024 16 187 1.6 9.7 0.00 0.28 0.28 83 1015.1
20260508135507 16 172 0.0 3.2 0.00 0.28 0.28 84 1014.9
20260508135009 16 121 0.0 3.2 0.00 0.28 0.28 85 1015.0
20260508134521 16 157 0.0 3.2 0.00 0.28 0.28 85 1015.0
20260508134006 16 181 0.0 4.8 0.03 0.28 0.28 86 1015.0
20260508133506 16 169 0.0 4.8 0.10 0.28 0.28 86 1014.8
20260508133021 16 120 0.0 6.4 0.13 0.28 0.28 87 1014.7
20260508132510 15 202 0.0 6.4 0.13 0.28 0.28 87 1014.9
20260508132006 15 142 0.0 6.4 0.13 0.28 0.28 87 1015.0
20260508131522 15 203 0.0 4.8 0.13 0.28 0.28 87 1015.1
20260508131008 15 203 0.0 4.8 0.13 0.28 0.28 87 1015.0
20260508130506 15 157 0.0 3.2 0.13 0.28 0.28 87 1015.0
20260508130032 15 229 0.0 3.2 0.13 0.28 0.28 87 1015.0
20260508125508 15 229 0.0 3.2 0.13 0.28 0.28 87 1015.3
20260508125008 15 229 0.0 3.2 0.13 0.28 0.28 87 1015.4
20260508124524 15 219 0.0 3.2 0.13 0.28 0.28 86 1015.1
20260508124006 15 219 0.0 3.2 0.10 0.25 0.25 86 1015.0
20260508123503 15 219 0.0 3.2 0.03 0.18 0.18 87 1015.3
20260508123020 15 200 0.0 4.8 0.00 0.15 0.15 87 1015.6
20260508122503 15 194 0.0 4.8 0.00 0.15 0.15 87 1015.4
20260508122008 15 193 0.0 3.2 0.00 0.15 0.15 87 1015.2
20260508121516 15 193 0.0 3.2 0.00 0.15 0.15 87 1015.3
20260508121004 15 238 0.0 3.2 0.00 0.15 0.15 88 1015.3
20260508120504 15 238 1.6 3.2 0.00 0.15 0.15 88 1015.2
20260508120016 15 200 0.0 3.2 0.00 0.15 0.15 88 1015.0
20260508115506 15 219 0.0 3.2 0.00 0.15 0.15 88 1015.4
20260508115002 15 219 0.0 3.2 0.00 0.15 0.15 89 1015.5
20260508114508 15 200 0.0 3.2 0.00 0.15 0.15 89 1015.3
20260508114003 15 202 0.0 6.4 0.00 0.15 0.15 89 1015.0
20260508113504 15 202 1.6 6.4 0.00 0.15 0.15 89 1015.1
20260508113017 15 160 0.0 3.2 0.00 0.15 0.15 89 1015.2
20260508112506 15 160 0.0 3.2 0.00 0.15 0.15 89 1015.2
20260508112006 15 160 0.0 4.8 0.00 0.15 0.15 89 1015.0
20260508111517 16 160 0.0 4.8 0.00 0.15 0.15 89 1014.6
20260508111006 16 209 0.0 3.2 0.00 0.15 0.15 89 1014.7
20260508110506 16 318 0.0 3.2 0.00 0.15 0.15 89 1015.1
20260508110019 16 318 0.0 4.8 0.00 0.15 0.15 89 1015.3
20260508105507 16 318 0.0 4.8 0.00 0.15 0.15 89 1016.0
20260508105008 15 333 1.6 4.8 0.00 0.15 0.15 88 1015.6
20260508104517 16 332 0.0 3.2 0.00 0.15 0.15 88 1015.1
20260508104007 16 332 0.0 3.2 0.00 0.15 0.15 88 1015.3
20260508103503 16 332 1.6 3.2 0.00 0.15 0.15 88 1015.5
20260508103011 16 226 0.0 1.6 0.00 0.15 0.15 88 1014.9
20260508102503 16 226 0.0 3.2 0.00 0.15 0.15 88 1014.4
20260508102004 16 226 0.0 3.2 0.00 0.15 0.15 88 1014.4
20260508101515 16 226 0.0 4.8 0.00 0.15 0.15 88 1014.7
20260508101007 16 226 1.6 4.8 0.00 0.15 0.15 88 1014.4
20260508100507 16 314 0.0 3.2 0.00 0.15 0.15 88 1014.2
20260508100020 16 314 0.0 3.2 0.00 0.15 0.15 88 1014.3
20260508095511 16 314 0.0 1.6 0.05 0.15 0.15 88 1014.2
20260508095007 16 314 0.0 3.2 0.05 0.15 0.15 88 1014.2
20260508094524 16 314 0.0 3.2 0.05 0.15 0.15 87 1014.2
20260508094009 16 314 0.0 3.2 0.05 0.15 0.15 87 1014.3
20260508093508 16 314 0.0 3.2 0.08 0.15 0.15 87 1014.3
20260508093035 16 314 0.0 3.2 0.08 0.15 0.15 87 1014.4
20260508092506 16 314 0.0 3.2 0.10 0.15 0.15 86 1014.5
20260508092007 16 314 0.0 3.2 0.10 0.15 0.15 86 1014.3
20260508091515 16 314 0.0 3.2 0.10 0.15 0.15 86 1014.4
20260508091006 16 314 0.0 3.2 0.10 0.15 0.15 85 1014.5
20260508090507 16 314 0.0 3.2 0.10 0.15 0.15 85 1014.7
20260508090019 16 314 0.0 3.2 0.15 0.15 0.15 85 1014.7
20260508085512 16 314 1.6 3.2 0.10 0.10 0.10 84 1014.5
20260508085006 16 314 0.0 6.4 0.10 0.10 0.10 84 1015.0
20260508084523 16 314 0.0 6.4 0.10 0.10 0.10 84 1015.3
20260508084006 16 306 1.6 3.2 0.10 0.10 0.10 83 1015.1
20260508083508 16 259 0.0 4.8 0.08 0.08 0.08 83 1014.4
20260508083021 16 175 1.6 4.8 0.08 0.08 0.08 81 1014.0
20260508082510 16 231 0.0 1.6 0.05 0.05 0.05 80 1014.7
20260508082011 16 231 0.0 3.2 0.05 0.05 0.05 79 1014.9
20260508081524 16 231 0.0 3.2 0.05 0.05 0.05 79 1015.6
20260508081010 17 231 0.0 3.2 0.05 0.05 0.05 78 1015.4
20260508080505 16 231 0.0 3.2 0.05 0.05 0.05 77 1015.3
20260508080014 16 232 0.0 3.2 0.00 0.00 0.00 76 1015.5
20260508075507 16 232 0.0 3.2 0.00 0.00 0.00 76 1016.0
20260508075006 16 232 0.0 3.2 0.00 0.00 0.00 76 1016.4
20260508074522 16 232 0.0 3.2 0.00 0.00 0.00 77 1016.4
20260508074006 16 232 0.0 3.2 0.00 0.00 0.00 77 1016.0
20260508073507 16 232 0.0 3.2 0.00 0.00 0.00 77 1016.0
20260508073028 16 232 0.0 0.0 0.00 0.00 0.00 76 1015.5
20260508072507 16 232 0.0 0.0 0.00 0.00 0.00 76 1015.6
20260508072010 16 232 0.0 0.0 0.00 0.00 0.00 76 1015.5
20260508071526 16 232 0.0 0.0 0.00 0.00 0.00 75 1015.6
20260508071009 16 232 0.0 0.0 0.00 0.00 0.00 75 1015.5
20260508070510 16 232 0.0 0.0 0.00 0.00 0.00 75 1015.6
20260508070025 16 232 0.0 0.0 0.00 0.00 0.00 75 1015.7
20260508065507 16 232 0.0 0.0 0.00 0.00 0.00 75 1015.7
20260508065008 16 232 0.0 0.0 0.00 0.00 0.00 75 1015.7
20260508064525 16 232 0.0 0.0 0.00 0.00 0.00 75 1015.9
20260508064011 16 232 0.0 0.0 0.00 0.00 0.00 75 1016.1
20260508063502 16 232 0.0 0.0 0.00 0.00 0.00 75 1016.1
20260508063009 16 232 0.0 0.0 0.00 0.00 0.00 74 1016.1
20260508062502 16 232 0.0 0.0 0.00 0.00 0.00 74 1016.1
20260508062003 16 232 0.0 0.0 0.00 0.00 0.00 74 1016.2
20260508061506 16 232 0.0 0.0 0.00 0.00 0.00 74 1016.3
20260508061007 16 232 0.0 0.0 0.00 0.00 0.00 73 1016.2
20260508060507 16 232 0.0 0.0 0.00 0.00 0.00 73 1016.1
20260508060011 16 232 0.0 0.0 0.00 0.00 0.00 73 1016.0
20260508055503 16 232 0.0 0.0 0.00 0.00 0.00 73 1016.0
20260508055003 16 232 0.0 0.0 0.00 0.00 0.00 72 1016.2
20260508054517 16 232 0.0 0.0 0.00 0.00 0.00 72 1016.0